{"data":{"norad_id":68758,"intl_designator":"2026-083F","name":"COSMOS 2610","alt_names":[],"object_type":"PAYLOAD","status":"ACTIVE","operator":null,"country":"CIS","launch_date":"2026-04-16","launch_site_code":"PLMSC","launch_vehicle":null,"mission":null,"orbit_class":"UNKNOWN","rcs_meters":null,"size_class":null,"mass_kg":null,"dimensions":null,"purposes":[],"wikipedia_slug":null,"has_3d_model":false,"image_url":null,"decayed_at":null,"tle_current":{"epoch":"2026-09-19T21:48:05.152608Z","epoch_age_seconds":110763,"freshness":"FRESH","line1":"1 68758U 26083F   26262.90839297  .00001195  00000+0  84409-4 0  9992","line2":"2 68758  97.8190  42.1948 0012000  92.9315 267.3285 15.06856821 23460","mean_motion":15.06856821,"eccentricity":0.0012,"inclination_deg":97.819,"raan_deg":42.1948,"arg_perigee_deg":92.9315,"mean_anomaly_deg":267.3285,"bstar":8.4409e-5,"rev_number":2346,"period_min":95.563160343553,"perigee_km":537.50308250549,"apogee_km":554.12055967611,"semimajor_km":6923.9488210908,"source":"CELESTRAK","updated_at":"2026-09-20T09:00:24.451968Z"}}}